[[{"header":{"parameterUnit":"m.s-1","parameterCategory":1,"la1":30.2991,"la2":30.254,"lo1":-89.0895,"lo2":-89.0444,"dy":0.0017,"dx":0.0017,"nx":28,"ny":28,"refTime":"2024-12-13T09:00:00:Z","depth":0,"parameterNumber":2,"parameterNumberName":"U-component_of_WINDS"},"data":[0,0,0,0,0,0,0,0,0,0,0,0,0,0,0,0,0,0,0,0,0,0,0,0,0,0,0,0,0,0,0,0,0,0,0,0,0,0,0,0,0,0,0,0,0,0,0,0,0,0,0,0,0,0,0,0,0,0,-2.4814,-2.4814,0,-2.4854,-2.4855,-2.4855,-2.4755,-2.4752,-2.4749,-2.4746,-2.4789,-2.4793,-2.4797,0,0,0,0,0,0,0,0,0,0,0,0,0,-2.4651,-2.4654,-2.4814,-2.4814,-2.4815,-2.4854,-2.4855,-2.4855,-2.4755,-2.4752,-2.4748,-2.4744,-2.4788,-2.4792,-2.4797,0,0,0,0,0,0,0,0,0,0,0,0,0,-2.471,-2.4656,-2.4814,-2.477,-2.4766,-2.4854,-2.4855,-2.4856,-2.4756,-2.4751,-2.4747,-2.4742,-2.4786,-2.4792,-2.4798,-2.4931,0,0,-2.4817,-2.482,0,0,0,0,0,0,0,0,-2.4707,-2.4716,-2.4776,-2.4773,-2.4769,-2.4795,-2.4813,-2.4881,-2.4757,-2.476,-2.4745,-2.474,-2.4795,-2.48,-2.4818,-2.4933,-2.4935,-2.4817,-2.4821,-2.4824,-2.4826,0,0,0,0,0,0,0,-2.4703,-2.4714,-2.483,-2.4777,-2.4773,-2.4748,-2.4751,-2.4826,-2.4804,-2.4759,-2.4752,-2.4758,-2.4792,-2.4812,-2.4818,-2.4936,-2.4817,-2.4823,-2.4827,-2.4829,-2.5163,-2.5168,0,0,0,0,0,0,-2.4704,-2.4711,-2.4829,-2.4831,-2.4725,-2.4755,-2.4758,-2.4791,-2.4803,-2.48,-2.4762,-2.4754,-2.4804,-2.4811,-2.482,-2.4977,-2.4824,-2.483,-2.4833,-2.5158,-2.5164,-2.517,0,0,0,0,0,0,-2.4701,-2.4715,-2.4827,-2.4769,-2.4781,-2.4763,-2.4801,-2.4795,-2.4815,-2.4805,-2.48,-2.4787,-2.4801,-2.4811,-2.4904,-2.4977,-2.4832,-2.4838,-2.5152,-2.516,-2.5167,-2.5293,0,0,0,0,0,0,-2.4697,-2.4715,-2.4765,-2.4771,-2.4785,-2.4911,-2.4805,-2.4799,-2.4825,-2.4814,-2.4827,-2.4824,-2.4798,-2.4896,-2.491,-2.4983,-2.4843,-2.5145,-2.5155,-2.5164,-2.5283,-2.5304,-2.5323,0,0,0,0,0,-2.4691,-2.48,-2.4768,-2.4783,-2.4847,-2.4916,-2.4924,-2.489,-2.4832,-2.4882,-2.4876,-2.4824,-2.4966,-2.4906,-2.4922,-2.4998,-2.514,-2.5152,-2.5164,-2.5273,-2.53,-2.5323,0,0,0,0,0,0,-2.4804,-2.48,-2.4765,-2.4878,-2.4898,-2.4899,-2.4962,-2.492,-2.4957,-2.4945,-2.4902,-2.4906,-2.5008,-2.5011,-2.4944,-2.5127,-2.5043,-2.5059,-2.5121,-2.5147,-2.5167,-2.5165,-2.4848,0,0,0,0,0,-2.4842,-2.4897,-2.489,-2.4991,-2.5003,-2.4981,-2.5009,-2.4982,-2.5001,-2.5009,-2.5009,-2.503,-2.5079,-2.5113,-2.5157,-2.5282,-2.5283,-2.5341,-2.5362,-2.5378,-2.5393,-2.5459,-2.5485,-2.5208,-2.5208,-2.5208,0,0,-2.4921,-2.4925,-2.4963,-2.5014,-2.5026,-2.5085,-2.4989,-2.5055,-2.5098,-2.5019,-2.5107,-2.5108,-2.5129,-2.5238,-2.5287,-2.5245,-2.5469,-2.5393,-2.5406,-2.5412,-2.5474,-2.55,-2.5524,-2.5216,-2.5214,-2.5213,0,0,-2.5096,-2.5104,-2.5189,-2.5203,-2.5222,-2.5207,-2.5227,-2.5234,-2.5232,-2.5319,-2.5261,-2.5312,-2.5398,-2.5415,-2.5435,-2.5615,-2.5569,-2.5631,-2.5738,-2.5803,-2.5825,-2.5844,-2.591,-2.5934,-2.5645,-2.5645,-2.5645,0,-2.5192,-2.5278,-2.5239,-2.5309,-2.5334,-2.5263,-2.5349,-2.5365,-2.5398,-2.5417,-2.5369,-2.5475,-2.5483,-2.5596,-2.564,-2.5658,-2.5681,-2.563,-2.5825,-2.5844,-2.5861,-2.5923,-2.5948,-2.5653,-2.5652,-2.5651,-2.565,0,-2.5396,-2.5457,-2.5523,-2.5557,-2.5588,-2.5667,-2.5639,-2.5676,-2.5645,-2.5635,-2.5725,-2.5733,-2.5778,-2.5802,-2.5773,-2.5912,-2.5885,-2.5832,-2.5747,-2.5896,-2.5954,-2.5977,-2.5663,-2.5661,-2.5658,-2.5657,0,0,-2.5646,-2.5655,-2.568,-2.5695,-2.571,-2.5757,-2.5831,-2.5875,-2.5908,-2.5933,-2.5995,-2.6069,-2.6019,-2.6042,-2.6014,-2.6071,-2.6215,-2.601,-2.601,-2.605,-2.6369,-2.6411,-2.6439,-2.6183,-2.6188,-2.6191,-2.6368,0,-2.5819,-2.5948,-2.5914,-2.6042,-2.6098,-2.6031,-2.6096,-2.6113,-2.6105,-2.6152,-2.6142,-2.6196,-2.6126,-2.6139,-2.6193,-2.6186,-2.6279,-2.6173,-2.6242,-2.6245,-2.6241,-2.6469,-2.6513,-2.6679,-2.639,-2.6394,-2.6396,0,-2.604,-2.6073,-2.6207,-2.6213,-2.6235,-2.6295,-2.6332,-2.6377,-2.6394,-2.6384,-2.641,-2.637,-2.6444,-2.6357,-2.6459,-2.6388,-2.6414,-2.6415,-2.642,-2.6427,-2.6332,-2.6484,-2.6731,-2.6757,-2.6431,-2.6429,-2.6426,0,-2.621,-2.6288,-2.6378,-2.6392,-2.6401,-2.6445,-2.6451,-2.6463,-2.6492,-2.6524,-2.6542,-2.6583,-2.6606,-2.6639,-2.6611,-2.655,-2.6718,-2.6629,-2.6713,-2.6714,-2.6753,-2.6752,-2.7011,-2.6767,-2.6767,-2.6766,-2.6766,0,-2.6409,-2.6494,-2.6455,-2.6511,-2.6604,-2.6564,-2.6657,-2.6655,-2.6667,-2.6721,-2.6665,-2.6718,-2.6677,-2.6726,-2.6705,-2.6793,-2.6804,-2.6798,-2.6792,-2.6805,-2.6806,-2.6823,-2.6811,-2.6773,-2.6772,-2.677,-2.6769,0,-2.6616,-2.6593,-2.6687,-2.6688,-2.669,-2.6759,-2.6759,-2.6811,-2.6798,-2.6868,-2.6882,-2.6862,-2.6917,-2.6892,-2.6949,-2.6935,-2.7049,-2.7026,-2.7044,-2.7038,-2.7125,-2.7118,-2.7406,-2.7442,-2.7173,-2.7176,-2.7178,0,-2.6746,-2.681,-2.6817,-2.6849,-2.6859,-2.6911,-2.694,-2.6902,-2.6934,-2.6959,-2.7008,-2.7058,-2.7096,-2.7186,-2.7177,-2.7221,-2.72,-2.7298,-2.7206,-2.7217,-2.7203,-2.7201,-2.7207,-2.7317,-2.732,-2.7323,-2.7325,0,-2.6979,-2.6964,-2.7007,-2.7047,-2.7082,-2.7112,-2.7136,-2.7166,-2.7129,-2.7168,-2.7223,-2.7252,-2.731,-2.7361,-2.7399,-2.7404,-2.736,-2.7353,-2.7375,-2.739,-2.7398,-2.7396,-2.7096,-2.7347,-2.7345,-2.7343,-2.7342,-2.7341,-2.7152,-2.7206,-2.722,-2.727,-2.7284,-2.7308,-2.7357,-2.7349,-2.7394,-2.7439,-2.7413,-2.7478,-2.7493,-2.754,-2.7552,-2.7602,-2.7564,-2.7595,-2.7604,-2.7613,-2.7625,-2.7388,-2.7609,-2.7608,-2.7607,-2.7607,-2.7606,0,-2.7384,-2.7389,-2.7435,-2.7471,-2.751,-2.7463,-2.7487,-2.7523,-2.7581,-2.7599,-2.7637,-2.77,-2.7748,-2.7743,-2.7787,-2.7829,-2.7809,-2.7842,-2.7839,-2.7842,-2.7656,-2.7633,-2.7857,-2.7857,-2.7857,-2.7857,-2.7857,-2.7857,-2.7509,-2.7598,-2.7585,-2.768,-2.7684,-2.7747,-2.7765,-2.7787,-2.7801,-2.7874,-2.7914,-2.7909,-2.7918,-2.7962,-2.8005,-2.8001,-2.8021,-2.8062,-2.8052,-2.7879,-2.7855,-2.7831,-2.7809,-2.8066,-2.8067,-2.8233,-2.8235,-2.8236]},{"header":{"parameterUnit":"m.s-1","parameterCategory":1,"la1":30.2991,"la2":30.254,"lo1":-89.0895,"lo2":-89.0444,"dy":0.0017,"dx":0.0017,"nx":28,"ny":28,"refTime":"2024-12-13T09:00:00:Z","depth":0,"parameterNumber":3,"parameterNumberName":"V-component_of_WINDS"},"data":[0,0,0,0,0,0,0,0,0,0,0,0,0,0,0,0,0,0,0,0,0,0,0,0,0,0,0,0,0,0,0,0,0,0,0,0,0,0,0,0,0,0,0,0,0,0,0,0,0,0,0,0,0,0,0,0,0,0,-5.0575,-5.0576,0,-5.0634,-5.0635,-5.0636,-5.0544,-5.054,-5.0537,-5.0534,-5.059,-5.0594,-5.0599,0,0,0,0,0,0,0,0,0,0,0,0,0,-5.0376,-5.038,-5.0575,-5.0576,-5.0576,-5.0634,-5.0635,-5.0636,-5.0544,-5.054,-5.0536,-5.0533,-5.0589,-5.0594,-5.0599,0,0,0,0,0,0,0,0,0,0,0,0,0,-5.0452,-5.0382,-5.0575,-5.0538,-5.0535,-5.0634,-5.0635,-5.0636,-5.0545,-5.054,-5.0535,-5.0531,-5.0587,-5.0593,-5.06,-5.0737,0,0,-5.062,-5.0623,0,0,0,0,0,0,0,0,-5.0448,-5.0459,-5.0542,-5.054,-5.0538,-5.0577,-5.0585,-5.067,-5.0546,-5.0541,-5.0534,-5.0529,-5.0589,-5.0595,-5.0617,-5.0739,-5.0742,-5.0621,-5.0625,-5.0628,-5.063,0,0,0,0,0,0,0,-5.0443,-5.0456,-5.0598,-5.0544,-5.0541,-5.0516,-5.0522,-5.0601,-5.0591,-5.0541,-5.0535,-5.0543,-5.0587,-5.0611,-5.0617,-5.0742,-5.0621,-5.0627,-5.0631,-5.0633,-5.0978,-5.0983,0,0,0,0,0,0,-5.0443,-5.0452,-5.0596,-5.06,-5.048,-5.0524,-5.053,-5.0569,-5.059,-5.0589,-5.0547,-5.0539,-5.0602,-5.061,-5.0619,-5.078,-5.0628,-5.0634,-5.0638,-5.0973,-5.0979,-5.0985,0,0,0,0,0,0,-5.0439,-5.0456,-5.0594,-5.0524,-5.054,-5.0532,-5.0577,-5.0573,-5.0596,-5.0595,-5.0592,-5.0574,-5.0598,-5.061,-5.0708,-5.078,-5.0637,-5.0643,-5.0967,-5.0975,-5.0982,-5.1103,0,0,0,0,0,0,-5.0433,-5.0455,-5.0509,-5.0526,-5.0544,-5.0684,-5.0581,-5.0577,-5.0609,-5.0598,-5.0619,-5.0617,-5.0595,-5.0699,-5.0715,-5.0787,-5.0648,-5.0961,-5.0971,-5.098,-5.1092,-5.1113,-5.1132,0,0,0,0,0,-5.0427,-5.0539,-5.0512,-5.053,-5.0611,-5.0688,-5.0698,-5.0672,-5.0615,-5.0667,-5.0666,-5.0617,-5.077,-5.071,-5.0727,-5.0802,-5.0956,-5.0968,-5.0979,-5.1083,-5.1109,-5.1131,0,0,0,0,0,0,-5.0528,-5.0541,-5.0511,-5.0633,-5.0661,-5.0673,-5.0738,-5.0701,-5.0744,-5.0732,-5.0696,-5.0701,-5.0807,-5.0814,-5.0747,-5.0935,-5.0853,-5.0869,-5.0926,-5.0951,-5.0971,-5.0966,-5.0654,0,0,0,0,0,-5.0565,-5.0629,-5.0636,-5.0743,-5.0758,-5.0746,-5.0779,-5.0756,-5.0783,-5.0794,-5.0799,-5.0826,-5.0879,-5.0916,-5.0965,-5.1093,-5.1095,-5.1153,-5.1173,-5.1189,-5.1203,-5.127,-5.1295,-5.1023,-5.1023,-5.1023,0,0,-5.0641,-5.0656,-5.0698,-5.0764,-5.0782,-5.0847,-5.0757,-5.0829,-5.0877,-5.0804,-5.0898,-5.0903,-5.0929,-5.1043,-5.1093,-5.1052,-5.1279,-5.1204,-5.1217,-5.1222,-5.1284,-5.131,-5.1333,-5.1031,-5.103,-5.1028,0,0,-5.0814,-5.0832,-5.0923,-5.0944,-5.0974,-5.0965,-5.0987,-5.1006,-5.1007,-5.1101,-5.1047,-5.1102,-5.1196,-5.1217,-5.124,-5.1421,-5.1376,-5.1438,-5.1541,-5.1607,-5.1628,-5.1647,-5.1711,-5.1734,-5.1451,-5.1452,-5.1452,0,-5.0904,-5.1002,-5.0974,-5.1051,-5.108,-5.102,-5.111,-5.1131,-5.1176,-5.1196,-5.115,-5.1267,-5.128,-5.1398,-5.1442,-5.1463,-5.1485,-5.1435,-5.1628,-5.1646,-5.1663,-5.1723,-5.1748,-5.1459,-5.1458,-5.1457,-5.1457,0,-5.1112,-5.118,-5.125,-5.1296,-5.1333,-5.1417,-5.1399,-5.144,-5.1414,-5.141,-5.1505,-5.152,-5.1571,-5.1597,-5.1572,-5.1711,-5.1684,-5.1634,-5.1551,-5.1697,-5.1753,-5.1776,-5.1469,-5.1467,-5.1464,-5.1463,0,0,-5.135,-5.138,-5.1406,-5.1425,-5.1454,-5.1506,-5.1586,-5.1637,-5.1673,-5.1705,-5.177,-5.1851,-5.1804,-5.183,-5.1807,-5.1865,-5.2006,-5.1807,-5.1807,-5.1843,-5.2159,-5.2196,-5.2224,-5.1977,-5.1981,-5.1985,-5.2156,0,-5.1521,-5.1661,-5.1638,-5.1773,-5.1835,-5.1778,-5.1847,-5.1871,-5.1869,-5.192,-5.1917,-5.1975,-5.1909,-5.1924,-5.1979,-5.1978,-5.2069,-5.1965,-5.2036,-5.2039,-5.2031,-5.2253,-5.2293,-5.2454,-5.2178,-5.2182,-5.2184,0,-5.174,-5.1782,-5.1924,-5.1943,-5.1968,-5.2031,-5.2076,-5.2126,-5.2152,-5.2146,-5.2176,-5.2142,-5.2219,-5.2136,-5.2242,-5.2171,-5.2199,-5.2202,-5.2208,-5.2213,-5.212,-5.2263,-5.2505,-5.2529,-5.2219,-5.2216,-5.2213,0,-5.1898,-5.1991,-5.2087,-5.2106,-5.2131,-5.2176,-5.2188,-5.2209,-5.2242,-5.228,-5.2301,-5.2348,-5.2373,-5.2409,-5.2388,-5.233,-5.2497,-5.2412,-5.2493,-5.2494,-5.2531,-5.2529,-5.278,-5.255,-5.255,-5.2549,-5.2549,0,-5.2092,-5.2181,-5.2159,-5.2218,-5.2316,-5.2287,-5.2384,-5.2388,-5.2408,-5.2466,-5.2418,-5.2473,-5.2442,-5.2494,-5.2478,-5.2567,-5.2579,-5.2576,-5.257,-5.258,-5.258,-5.2597,-5.2585,-5.2556,-5.2554,-5.2553,-5.2552,0,-5.2285,-5.2275,-5.2376,-5.2391,-5.2397,-5.2468,-5.248,-5.2535,-5.2529,-5.2603,-5.2619,-5.2609,-5.2668,-5.2651,-5.2714,-5.2703,-5.2816,-5.2796,-5.2808,-5.2803,-5.2885,-5.2878,-5.3155,-5.319,-5.2938,-5.2941,-5.2943,0,-5.2409,-5.2477,-5.25,-5.2536,-5.2552,-5.2611,-5.2644,-5.2618,-5.2655,-5.2689,-5.2739,-5.2794,-5.2837,-5.2933,-5.2931,-5.2979,-5.2959,-5.3053,-5.2966,-5.2974,-5.296,-5.2956,-5.2962,-5.3071,-5.3073,-5.3076,-5.3078,0,-5.263,-5.2622,-5.2673,-5.2722,-5.2763,-5.28,-5.2833,-5.2864,-5.2841,-5.2883,-5.2944,-5.2977,-5.3042,-5.3097,-5.3141,-5.315,-5.311,-5.3105,-5.3126,-5.3137,-5.3141,-5.3139,-5.2855,-5.3099,-5.3097,-5.3095,-5.3094,-5.3093,-5.2792,-5.2849,-5.2875,-5.2933,-5.2955,-5.2986,-5.3038,-5.304,-5.309,-5.3142,-5.3123,-5.3193,-5.3215,-5.327,-5.3286,-5.3338,-5.3302,-5.3333,-5.334,-5.3348,-5.3359,-5.3133,-5.3346,-5.3345,-5.3345,-5.3344,-5.3344,0,-5.301,-5.3024,-5.3078,-5.3126,-5.3171,-5.3131,-5.3164,-5.3204,-5.3266,-5.3292,-5.3335,-5.3404,-5.3457,-5.3459,-5.3508,-5.355,-5.3532,-5.3563,-5.356,-5.3562,-5.3388,-5.3365,-5.3577,-5.3577,-5.3577,-5.3577,-5.3576,-5.3576,-5.3129,-5.3224,-5.3218,-5.3322,-5.3334,-5.3403,-5.3426,-5.3454,-5.3474,-5.3554,-5.3598,-5.36,-5.3616,-5.3665,-5.3712,-5.3711,-5.373,-5.3769,-5.3761,-5.3598,-5.3575,-5.3553,-5.353,-5.3773,-5.3774,-5.393,-5.3931,-5.3933]}]]